Weather History for Stillwater, OK

Change the Weather History Date:

Monday, February 3, 2014

  Actual Average Record
Temperature  
Mean Temperature 24 °F -  
Max Temperature 39 °F 47 °F 64 °F (2003)
Min Temperature 9 °F 26 °F -2 °F (2011)
Degree Days  
Heating Degree Days 41    
Moisture  
Dew Point 16 °F    
Average Humidity 66    
Maximum Humidity 84    
Minimum Humidity 41    
Precipitation  
Precipitation 0.00 in - - ()
Sea Level Pressure  
Sea Level Pressure 30.22 in    
Wind  
Wind Speed 5 mph (ESE)    
Max Wind Speed 9 mph    
Max Gust Speed -    
Visibility 10 miles    
Events      
Averages and records for this station are not official NWS values.
T = Trace of Precipitation, MM = Missing Value Source: NWS Daily Summary

Daily Weather History Graph

Daily Weather History Graph

Search for Another Location

Airport:

Trip Planner

Search our weather history database for the weather conditions in past years. The results will help you decide how hot, cold, wet, or windy it might be!

Date:

Astronomy

Feb. 03, 2014 Rise Set
Actual Time 7:27 AM CST 5:57 PM CST
Civil Twilight 7:00 AM CST 6:24 PM CST
Nautical Twilight 6:30 AM CST 6:54 PM CST
Astronomical Twilight 5:59 AM CST 7:24 PM CST
Moon 9:40 AM CST (2/3) 10:38 PM CST (2/3)
Length of Visible Light 11h 23m
Length of Day
10h 29m
Waxing Crescent, 20% of the Moon is Illuminated
Feb 3
Waxing Crescent
Feb 6
First Quarter
Feb 14
Full
Feb 22
Last Quarter
Mar 1
New

Hourly Weather History & Observations

Time (CST) Temp. Windchill Dew Point Humidity Pressure Visibility Wind Dir Wind Speed Gust Speed Precip Events Conditions
12:53 AM 10.0 °F 3.6 °F 6.1 °F 84% 30.34 in 10.0 mi North 3.5 mph - N/A   Clear
1:53 AM 12.0 °F 4.1 °F 7.0 °F 80% 30.33 in 10.0 mi NNE 4.6 mph - N/A   Clear
2:53 AM 14.0 °F 6.5 °F 9.0 °F 80% 30.32 in 10.0 mi NE 4.6 mph - N/A   Clear
3:53 AM 10.9 °F - 6.1 °F 81% 30.32 in 10.0 mi Calm Calm - N/A   Clear
4:53 AM 9.0 °F - 5.0 °F 84% 30.31 in 10.0 mi Calm Calm - N/A   Clear
5:53 AM 12.0 °F 1.5 °F 7.0 °F 80% 30.29 in 10.0 mi ENE 6.9 mph - N/A   Clear
6:53 AM 12.0 °F 2.7 °F 8.1 °F 84% 30.29 in 10.0 mi ENE 5.8 mph - N/A   Clear
7:53 AM 17.1 °F 8.7 °F 12.0 °F 81% 30.29 in 10.0 mi East 5.8 mph - N/A   Clear
8:53 AM 21.9 °F 14.5 °F 15.1 °F 75% 30.30 in 10.0 mi ENE 5.8 mph - N/A   Clear
9:53 AM 27.0 °F 21.6 °F 15.1 °F 61% 30.33 in 10.0 mi ESE 4.6 mph - N/A   Clear
10:53 AM 30.9 °F 26.2 °F 14.0 °F 50% 30.32 in 10.0 mi SE 4.6 mph - N/A   Clear
11:53 AM 36.0 °F 29.6 °F 14.0 °F 41% 30.28 in 10.0 mi SE 8.1 mph - N/A   Clear
12:53 PM 37.0 °F 31.6 °F 17.1 °F 44% 30.24 in 10.0 mi SSE 6.9 mph - N/A   Mostly Cloudy
1:53 PM 39.0 °F 32.8 °F 19.9 °F 46% 30.20 in 10.0 mi South 9.2 mph - N/A   Overcast
2:53 PM 37.9 °F 31.5 °F 23.0 °F 55% 30.18 in 10.0 mi SSE 9.2 mph - N/A   Overcast
3:53 PM 37.9 °F 32.1 °F 24.1 °F 57% 30.17 in 10.0 mi South 8.1 mph - N/A   Overcast
4:53 PM 37.0 °F 32.4 °F 25.0 °F 62% 30.16 in 10.0 mi SE 5.8 mph - N/A   Overcast
5:53 PM 37.0 °F 31.6 °F 26.1 °F 65% 30.14 in 10.0 mi SSE 6.9 mph - N/A   Overcast
6:53 PM 35.1 °F 32.2 °F 25.0 °F 67% 30.14 in 10.0 mi SSE 3.5 mph - N/A   Overcast
7:53 PM 35.1 °F 31.0 °F 25.0 °F 67% 30.13 in 10.0 mi SE 4.6 mph - N/A   Overcast
8:02 PM 35.6 °F 32.8 °F 24.8 °F 65% 30.10 in 10.0 mi ESE 3.5 mph - N/A   Overcast
8:53 PM 35.1 °F 28.6 °F 25.0 °F 67% 30.11 in 10.0 mi East 8.1 mph - N/A   Overcast
9:53 PM 34.0 °F 28.0 °F 19.9 °F 56% 30.12 in 10.0 mi East 6.9 mph - N/A   Overcast
10:53 PM 34.0 °F 28.8 °F 19.0 °F 54% 30.11 in 10.0 mi ESE 5.8 mph - N/A   Mostly Cloudy
11:53 PM 34.0 °F - 19.0 °F 54% 30.10 in 10.0 mi Calm Calm - N/A   Overcast